Total_Precipitation_Accumulation
3.49 3.58 3.53 3.49 3.18 3.23 3.44 3.74 3.59 3.79 3.77 3.33 2.86 2.70 2.68 2.67 2.61 2.74 3.04 3.09 2.89 2.97 3.78 4.27 4.14 3.80 3.32 2.83 2.53 2.38 2.32 2.11 1.87 1.63 1.53 1.62 1.61 1.59 1.47 1.25 1.10 0.95 0.78
3.85 3.89 3.84 3.75 3.35 3.20 3.50 3.82 3.80 4.32 4.21 4.02 3.45 3.09 2.88 2.84 2.79 2.90 3.23 3.45 3.37 3.29 3.78 4.40 4.65 4.58 4.13 3.53 3.04 2.73 2.68 2.58 2.30 1.86 1.67 1.77 1.83 1.73 1.64 1.47 1.24 1.06 0.86
4.03 3.91 3.89 3.71 3.58 3.48 3.64 3.71 3.83 4.27 4.04 4.01 3.85 3.52 3.30 3.07 2.88 3.08 3.47 3.83 3.46 3.37 3.75 4.30 4.72 4.72 4.56 4.27 3.73 3.29 2.95 2.72 2.54 2.18 1.85 1.73 1.76 1.70 1.62 1.54 1.36 1.11 0.84
3.99 4.08 3.83 3.63 3.69 3.63 3.83 4.13 4.13 4.23 4.38 4.32 4.09 3.76 3.58 3.47 3.01 3.04 3.19 3.39 3.65 3.16 3.58 4.28 4.56 4.33 4.44 4.69 4.61 4.31 3.78 3.14 2.84 2.51 2.16 1.92 1.86 1.76 1.63 1.55 1.44 1.20 0.90
3.76 4.13 3.99 3.98 3.88 4.08 3.98 3.63 4.24 4.48 4.48 4.38 3.77 3.72 3.33 3.29 3.21 2.97 3.08 3.14 3.35 3.30 3.37 3.51 4.14 3.98 4.22 4.80 5.12 5.22 4.91 4.23 3.52 3.06 2.67 2.37 2.20 1.94 1.71 1.58 1.47 1.25 1.00
3.78 4.08 3.87 3.85 4.00 4.37 4.41 4.27 4.57 4.50 4.34 4.40 3.69 3.48 3.19 2.89 2.87 2.83 2.64 2.87 2.94 2.67 2.91 3.17 3.59 3.07 3.34 3.89 4.44 5.12 5.53 5.41 4.66 3.83 3.43 3.17 2.96 2.48 1.96 1.67 1.45 1.28 1.09
3.61 3.99 3.71 4.10 4.12 4.30 4.42 4.37 4.60 4.50 4.26 4.36 4.33 3.74 3.10 2.69 2.60 2.40 2.40 2.64 2.57 2.61 2.95 3.42 3.71 3.57 3.15 3.11 3.42 4.20 5.19 5.76 5.50 4.72 4.24 3.94 3.70 3.19 2.42 1.99 1.61 1.34 1.21
3.35 3.46 4.01 3.98 4.08 4.30 4.35 4.30 4.36 4.11 3.81 4.18 4.54 4.37 3.59 3.11 2.65 2.16 2.39 2.42 2.56 2.85 2.87 2.93 3.39 3.76 3.55 3.57 3.13 3.16 4.32 5.42 5.93 5.67 5.27 4.86 4.44 3.68 2.94 2.43 1.91 1.54 1.37
3.40 3.53 3.80 3.90 4.01 3.90 4.11 4.30 4.10 4.02 3.90 3.95 4.21 4.47 3.96 3.29 2.75 2.40 2.27 2.33 2.70 2.97 2.81 2.76 2.75 3.02 3.09 3.58 3.73 3.19 3.37 3.81 4.66 5.75 6.16 5.95 5.10 3.94 3.22 2.80 2.40 1.92 1.57
3.19 3.31 3.49 3.70 3.84 3.73 3.89 3.73 3.82 3.99 4.04 3.85 3.94 3.86 3.77 3.52 3.33 2.88 2.46 2.35 2.59 2.69 2.66 2.44 2.44 2.76 2.93 3.42 3.58 2.99 2.68 2.65 3.04 4.24 5.41 5.65 5.18 4.17 3.42 3.19 3.14 2.72 2.09
3.02 3.00 3.22 3.42 3.55 3.43 3.41 3.62 3.98 3.92 3.86 3.74 3.85 3.86 4.01 3.82 3.47 3.31 2.93 2.65 2.51 2.27 2.35 2.40 2.37 2.46 2.68 3.08 3.26 2.73 2.58 2.37 2.30 2.70 3.49 4.12 4.40 4.12 3.66 3.57 3.85 3.82 3.33
2.91 2.84 2.95 3.25 3.34 3.27 3.24 3.38 3.50 3.56 3.58 3.70 3.69 3.57 3.80 3.84 3.66 3.70 3.31 2.91 2.61 2.14 2.06 2.15 2.26 2.40 2.52 2.70 2.46 2.32 2.45 2.27 2.10 2.09 2.37 2.84 3.32 3.58 3.51 3.63 3.99 4.29 4.30
2.78 2.78 2.79 2.93 2.86 2.86 2.96 3.21 3.25 3.19 3.22 3.33 3.29 3.32 3.31 3.23 3.33 3.51 3.46 3.00 2.64 2.13 2.05 1.94 1.96 2.19 2.20 2.53 2.59 2.46 2.30 2.18 2.02 1.96 2.02 2.14 2.44 2.75 3.05 3.29 3.73 4.17 4.41
2.67 2.64 2.57 2.53 2.46 2.48 2.54 2.92 3.01 2.94 3.03 3.07 2.96 3.23 3.07 2.90 3.08 3.09 3.19 3.34 3.06 2.67 2.55 2.28 1.91 1.94 2.18 2.42 2.54 2.46 2.12 2.13 1.97 1.89 1.87 1.90 2.00 2.15 2.35 2.61 2.91 3.20 3.48
2.28 2.37 2.33 2.24 2.21 2.32 2.47 2.62 2.65 2.65 2.80 2.77 2.80 2.88 2.68 2.65 2.76 2.78 2.95 3.23 3.34 3.10 2.93 2.70 2.27 2.02 2.08 2.31 2.63 2.37 2.21 2.11 1.94 1.83 1.72 1.68 1.70 1.75 1.83 1.95 2.14 2.35 2.48
2.26 2.18 2.12 2.06 2.07 2.12 2.20 2.40 2.38 2.48 2.48 2.45 2.58 2.62 2.57 2.53 2.67 2.61 2.67 2.90 3.15 3.21 2.98 2.69 2.43 2.10 2.19 2.14 2.37 2.27 2.28 2.24 1.95 1.75 1.58 1.49 1.49 1.55 1.64 1.71 1.77 1.89 1.94
2.33 2.29 2.23 2.18 2.04 1.98 2.07 2.18 2.06 2.20 2.21 2.21 2.19 2.26 2.29 2.46 2.60 2.57 2.62 2.68 2.95 3.26 3.15 2.91 2.65 2.47 2.39 2.37 2.21 2.15 2.06 1.96 1.77 1.65 1.44 1.35 1.35 1.38 1.42 1.50 1.59 1.70 1.78
1.99 2.01 1.97 1.97 1.97 2.06 2.17 2.08 2.02 2.06 2.14 2.11 2.19 2.34 2.23 2.38 2.54 2.48 2.59 2.60 2.77 3.13 3.27 3.36 3.29 2.98 2.72 2.58 2.52 2.31 1.91 1.74 1.78 1.74 1.55 1.41 1.33 1.30 1.29 1.32 1.39 1.53 1.64
1.96 1.92 1.91 1.91 1.93 2.12 2.25 2.19 2.16 2.23 2.26 2.15 2.24 2.28 2.16 2.28 2.34 2.37 2.44 2.50 2.67 2.89 3.16 3.13 3.17 3.09 2.93 2.68 2.81 2.51 2.18 2.11 1.74 1.69 1.63 1.46 1.37 1.31 1.28 1.28 1.32 1.37 1.44
2.02 2.07 2.07 2.02 2.04 1.99 2.02 2.16 2.28 2.29 2.26 2.16 2.15 2.07 1.95 1.96 2.04 2.23 2.24 2.37 2.59 2.79 2.98 2.93 3.00 3.11 3.17 3.17 3.21 2.96 2.76 2.50 2.13 1.72 1.73 1.55 1.48 1.37 1.25 1.19 1.20 1.26 1.37
1.97 2.18 2.19 2.15 2.14 2.02 1.89 1.98 2.09 2.03 2.07 2.04 1.98 1.81 1.62 1.66 1.76 1.86 1.80 2.15 2.46 2.59 2.68 2.76 2.86 3.06 3.20 3.43 3.25 3.11 2.99 2.92 2.60 2.16 2.09 1.75 1.61 1.41 1.24 1.20 1.20 1.20 1.26
2.11 2.14 2.10 2.11 2.01 1.72 1.78 1.73 1.69 1.73 1.80 1.83 1.86 1.83 1.67 1.56 1.52 1.56 1.54 1.71 2.03 2.18 2.39 2.68 2.82 3.02 3.12 3.14 3.32 3.30 3.24 3.09 2.79 2.47 2.45 2.37 2.20 2.02 1.73 1.41 1.32 1.19 1.12
2.03 1.93 1.87 1.88 1.83 1.75 1.61 1.41 1.36 1.47 1.66 1.74 1.79 1.81 1.57 1.45 1.52 1.40 1.48 1.55 1.58 1.68 1.86 2.24 2.51 2.61 2.66 2.71 3.02 3.13 3.13 3.00 2.91 2.76 2.81 2.77 2.63 2.36 1.92 1.70 1.61 1.37 1.25
1.88 1.89 1.79 1.78 1.85 1.74 1.64 1.39 1.29 1.26 1.45 1.51 1.50 1.54 1.58 1.57 1.48 1.51 1.49 1.48 1.40 1.43 1.53 1.58 1.74 1.96 2.22 2.47 2.68 2.88 3.15 3.10 3.03 2.94 2.90 2.98 2.81 2.65 2.26 1.96 1.81 1.56 1.46
1.82 1.82 1.81 1.83 1.82 1.75 1.69 1.48 1.39 1.36 1.47 1.49 1.52 1.53 1.62 1.67 1.67 1.51 1.46 1.49 1.50 1.53 1.49 1.51 1.46 1.55 1.70 1.82 2.00 2.29 2.64 2.97 3.17 3.14 2.93 3.03 2.96 2.97 2.89 2.49 2.06 1.83 1.57
1.81 1.81 1.86 1.84 1.75 1.70 1.59 1.42 1.40 1.41 1.60 1.70 1.82 1.80 1.70 1.57 1.55 1.43 1.42 1.52 1.50 1.50 1.43 1.41 1.36 1.33 1.33 1.45 1.62 1.81 2.10 2.48 2.77 2.92 2.84 2.98 3.15 3.49 3.63 3.11 2.49 2.05 1.82